TimeMDT,TemperatureF,Dew PointF,Humidity,Sea Level PressureIn,VisibilityMPH,Wind Direction,Wind SpeedMPH,Gust SpeedMPH,PrecipitationIn,Events,Conditions,WindDirDegrees,DateUTC
12:53 AM,36.0,30.0,79,30.03,10.0,Calm,Calm,-,N/A,,Clear,0,2012-10-12 06:53:00
1:53 AM,37.4,30.2,75,29.93,10.0,Calm,Calm,-,N/A,,Clear,0,2012-10-12 07:53:00
2:53 AM,36.0,28.9,76,29.99,10.0,Calm,Calm,-,N/A,,Clear,0,2012-10-12 08:53:00
3:53 AM,34.0,28.9,82,29.98,10.0,Calm,Calm,-,N/A,,Clear,0,2012-10-12 09:53:00
4:53 AM,34.0,28.9,82,29.97,10.0,Calm,Calm,-,N/A,,Clear,0,2012-10-12 10:53:00
5:53 AM,32.0,28.0,85,29.97,10.0,Calm,Calm,-,N/A,,Clear,0,2012-10-12 11:53:00
6:53 AM,30.9,27.0,85,29.99,10.0,Calm,Calm,-,N/A,,Clear,0,2012-10-12 12:53:00
7:53 AM,30.2,28.4,93,29.90,10.0,Calm,Calm,-,N/A,,Clear,0,2012-10-12 13:53:00
8:53 AM,32.0,28.9,88,30.01,10.0,Calm,Calm,-,N/A,,Clear,0,2012-10-12 14:53:00
9:53 AM,37.4,30.2,75,29.90,10.0,East,3.5,-,N/A,,Clear,90,2012-10-12 15:53:00
10:53 AM,42.8,32.0,66,29.88,10.0,Calm,Calm,-,N/A,,Clear,0,2012-10-12 16:53:00
11:53 AM,48.0,32.0,54,29.92,10.0,Calm,Calm,-,N/A,,Clear,0,2012-10-12 17:53:00
12:53 PM,54.0,32.0,43,29.88,10.0,Calm,Calm,-,N/A,,Clear,0,2012-10-12 18:53:00
1:53 PM,59.0,33.1,38,29.83,10.0,Calm,Calm,-,N/A,,Clear,0,2012-10-12 19:53:00
2:53 PM,66.0,33.1,29,29.78,10.0,NNE,4.6,-,N/A,,Clear,30,2012-10-12 20:53:00
3:53 PM,69.8,32.0,25,29.73,10.0,Calm,Calm,-,N/A,,Clear,0,2012-10-12 21:53:00
4:53 PM,73.9,17.1,12,29.74,10.0,West,10.4,21.9,N/A,,Clear,260,2012-10-12 22:53:00
5:53 PM,70.0,19.0,14,29.76,9.0,West,10.4,-,N/A,,Clear,280,2012-10-12 23:53:00
6:53 PM,64.9,21.0,19,29.80,7.0,West,8.1,-,N/A,,Mostly Cloudy,280,2012-10-13 00:53:00
7:53 PM,64.4,21.2,19,29.78,8.0,West,5.8,-,N/A,,Partly Cloudy,260,2012-10-13 01:53:00
8:53 PM,64.9,19.0,17,29.84,10.0,West,15.0,-,N/A,,Clear,280,2012-10-13 02:53:00
9:53 PM,62.1,18.0,18,29.87,10.0,West,4.6,-,N/A,,Scattered Clouds,280,2012-10-13 03:53:00
10:53 PM,60.1,19.0,20,29.86,10.0,Variable,3.5,-,N/A,,Clear,0,2012-10-13 04:53:00
11:53 PM,57.9,21.0,24,29.87,10.0,West,9.2,-,N/A,,Clear,260,2012-10-13 05:53:00